Change the Weather History Date:

Wednesday, February 19, 2014

  Actual Average Record
Temperature  
Mean Temperature 38 °F 36 °F  
Max Temperature 50 °F 45 °F 73 °F (1961)
Min Temperature 26 °F 27 °F 4 °F (1903)
Degree Days  
Heating Degree Days 27 29  
Month to date heating degree days 632 579  
Since 1 July heating degree days 3580 3340  
Cooling Degree Days 0 0  
Month to date cooling degree days 0 0  
Year to date cooling degree days 0 0  
Moisture  
Dew Point 39 °F    
Average Humidity 77    
Maximum Humidity 93    
Minimum Humidity 60    
Precipitation  
Precipitation 0.08 in 0.10 in 1.70 in (1927)
Month to date precipitation 5.16 1.87  
Year to date precipitation 8.41 5.09  
Snow  
Snow 0.00 in 0.30 in 16.60 in (1979)
Month to date snowfall 5.4 4.9  
Since 1 July snowfall 27.5 13.3  
Snow Depth 0.00 in    
Sea Level Pressure  
Sea Level Pressure 29.89 in    
Wind  
Wind Speed 9 mph (SSW)    
Max Wind Speed 24 mph    
Max Gust Speed 30 mph    
Visibility 7 miles    
Events Rain    
T = Trace of Precipitation, MM = Missing Value Source: NWS Daily Summary

Daily Weather History Graph

Daily Weather History Graph

Search for Another Location

Airport or City:

Trip Planner

Search our weather history database for the weather conditions in past years. The results will help you decide how hot, cold, wet, or windy it might be!

Date:

Astronomy

Feb. 19, 2014 Rise Set
Actual Time 6:45 AM EST 5:39 PM EST
Civil Twilight 6:17 AM EST 6:06 PM EST
Nautical Twilight 5:46 AM EST 6:38 PM EST
Astronomical Twilight 5:15 AM EST 7:09 PM EST
Moon 10:28 PM EST (2/19) 8:51 AM EST (2/19)
Length of Visible Light 11h 49m
Length of Day
10h 54m
Waning Gibbous, 80% of the Moon is Illuminated
Feb 19
Waning Gibbous
Feb 22
Last Quarter
Mar 1
New
Mar 8
First Quarter
Mar 16
Full

Hourly Weather History & Observations

Time (EST) Temp. Windchill Dew Point Humidity Pressure Visibility Wind Dir Wind Speed Gust Speed Precip Events Conditions
12:54 AM 34.0 °F 29.8 °F 30.0 °F 85% 30.12 in 9.0 mi SSE 4.6 mph - N/A   Clear
1:54 AM 28.9 °F - 27.0 °F 92% 30.11 in 5.0 mi Calm Calm - N/A   Clear
2:54 AM 28.0 °F - 26.1 °F 92% 30.09 in 5.0 mi Calm Calm - N/A   Clear
3:54 AM 35.1 °F 30.1 °F 30.9 °F 85% 30.06 in 10.0 mi SE 5.8 mph - N/A   Clear
4:54 AM 34.0 °F 25.5 °F 30.9 °F 89% 30.01 in 9.0 mi SE 11.5 mph - N/A   Clear
5:54 AM 37.9 °F 31.5 °F 34.0 °F 86% 29.96 in 10.0 mi SE 9.2 mph - N/A   Clear
6:54 AM 39.9 °F 35.1 °F 35.1 °F 83% 29.95 in 10.0 mi SSE 6.9 mph - N/A   Clear
7:54 AM 43.0 °F 36.8 °F 35.1 °F 74% 29.92 in 10.0 mi SSE 11.5 mph - N/A   Clear
8:54 AM 46.0 °F 41.0 °F 36.0 °F 68% 29.91 in 10.0 mi South 10.4 mph - N/A   Clear
9:54 AM 48.9 °F - 39.0 °F 69% 29.87 in 10.0 mi South 12.7 mph 19.6 mph N/A   Mostly Cloudy
10:54 AM 46.9 °F - 41.0 °F 80% 29.84 in 9.0 mi SSW 15.0 mph 20.7 mph 0.00 in Rain Light Rain
11:54 AM 46.0 °F 41.0 °F 43.0 °F 89% 29.80 in 5.0 mi South 10.4 mph - 0.03 in Rain Light Rain
12:20 PM 46.0 °F 41.4 °F 43.0 °F 89% 29.77 in 4.0 mi South 9.2 mph - 0.00 in Rain Light Rain
12:43 PM 46.0 °F 41.9 °F 44.1 °F 93% 29.76 in 2.5 mi SSW 8.1 mph - 0.03 in Rain Light Rain
12:54 PM 46.0 °F 42.5 °F 44.1 °F 93% 29.75 in 2.5 mi South 6.9 mph - 0.03 in Rain Light Rain
1:20 PM 46.0 °F 43.1 °F 45.0 °F 96% 29.73 in 2.5 mi South 5.8 mph - 0.00 in   Overcast
1:54 PM 46.9 °F - 45.0 °F 93% 29.72 in 2.5 mi SW 5.8 mph - 0.00 in   Overcast
2:01 PM 46.9 °F - 45.0 °F 93% 29.72 in 5.0 mi SSW 5.8 mph - N/A   Overcast
2:09 PM 46.9 °F - 46.0 °F 97% 29.72 in 4.0 mi SSW 3.5 mph - N/A   Overcast
2:54 PM 48.9 °F - 46.9 °F 93% 29.73 in 4.0 mi Calm Calm - N/A   Overcast
3:54 PM 50.0 °F - 48.9 °F 96% 29.73 in 5.0 mi WSW 5.8 mph - N/A   Overcast
4:54 PM 48.9 °F - 46.9 °F 93% 29.76 in 5.0 mi WNW 9.2 mph - N/A   Overcast
5:29 PM 48.0 °F - 46.9 °F 96% 29.81 in 4.0 mi West 11.5 mph - 0.02 in Rain Light Rain
5:54 PM 48.9 °F - 46.0 °F 90% 29.79 in 8.0 mi WSW 8.1 mph - 0.02 in   Overcast
6:54 PM 48.0 °F - 45.0 °F 89% 29.84 in 10.0 mi West 11.5 mph - N/A   Clear
7:54 PM 48.0 °F - 42.1 °F 80% 29.88 in 10.0 mi West 10.4 mph - N/A   Clear
8:54 PM 48.9 °F - 37.9 °F 66% 29.94 in 10.0 mi West 16.1 mph 23.0 mph N/A   Clear
9:54 PM 46.9 °F - 36.0 °F 66% 30.00 in 10.0 mi WNW 21.9 mph 29.9 mph N/A   Clear
10:54 PM 46.0 °F 41.0 °F 33.1 °F 61% 30.05 in 10.0 mi West 10.4 mph - N/A   Clear
11:54 PM 44.1 °F 38.1 °F 30.9 °F 60% 30.09 in 10.0 mi West 11.5 mph - N/A   Clear